Regional Weather Roundup
Issued by NWS

Home | Current Version | Previous Version | Text Only | Print | Product List | Glossary On
Versions: 1 2 3 4 5 6 7 8 9 10 11 12 13 14 15 16 17 18 19 20 21 22 23 24 25 26 27 28 29 30 31 32 33 34 35 36 37 38 39 40 41 42 43 44 45 46 47 48 49 50
000
ASUS45 KREV 251610
RWRNV
NEVADA REGIONAL WEATHER ROUNDUP
NATIONAL WEATHER SERVICE RENO NV
900 AM PDT SAT MAR 25 2017

NOTE: "FAIR" INDICATES FEW OR NO CLOUDS BELOW 12,000 FEET WITH NO
SIGNIFICANT WEATHER AND/OR OBSTRUCTIONS TO VISIBILITY.

NVZ001-003-004-251700-
WESTERN NEVADA

CITY           SKY/WX    TMP DP  RH WIND       PRES   REMARKS
RENO           PTSUNNY   41  33  73 CALM      30.12S
CARSON CITY    CLOUDY    41  32  70 NE3       30.13S
MINDEN         PTSUNNY   39  36  87 N5        30.12S
FALLON         PTSUNNY   45  32  60 W3        30.11S
LOVELOCK       SUNNY     41  34  76 CALM      30.11S
HAWTHORNE      PTSUNNY   46  34  61 NW13      30.11R
$$

NVZ002-CAZ072-073-251700-
NORTHERN AND CENTRAL SIERRA

CITY           SKY/WX    TMP DP  RH WIND       PRES   REMARKS
S. LAKE TAHOE  SUNNY     35  30  82 SE5       30.09S
TRUCKEE        FOG       30  30 100 CALM      30.13R VSB 1/4
SQUAW VLY 8000   N/A     28  28 100 CALM        N/A
SUSANVILLE     SUNNY     39  34  81 CALM      30.13S
MAMMOTH LAKES  CLOUDY    37  29  72 W12       30.09S
BRIDGEPORT       N/A     32  26  78 CALM      30.07S
$$

NVZ030-031-036-251700-
NORTHERN NEVADA

CITY           SKY/WX    TMP DP  RH WIND       PRES   REMARKS
ELKO           CLOUDY    41  34  76 W3        30.06S
WINNEMUCCA     MOSUNNY   41  35  79 CALM      30.10S
WENDOVER       LGT RAIN  43  38  82 W6        30.07S
$$

NVZ035-037-251700-
CENTRAL NEVADA

CITY           SKY/WX    TMP DP  RH WIND       PRES   REMARKS
ELY            SNOW      32  32 100 N10       30.05R
EUREKA           N/A     35  32  88 SE3       30.06F
$$

NVZ013-014-251700-
SOUTH CENTRAL NEVADA

CITY           SKY/WX    TMP DP  RH WIND       PRES   REMARKS
TONOPAH        CLOUDY    42  39  89 NW5       30.06S
$$

NVZ017-020-022-251700-
SOUTHERN NEVADA

CITY           SKY/WX    TMP DP  RH WIND       PRES   REMARKS
LAS VEGAS      MOSUNNY   61  35  37 NW18G24   29.97R
N. LAS VEGAS   PTSUNNY   62  37  39 NW21G30   29.96R
NELLIS AFB     MOSUNNY   64  37  36 W25G35    29.95R
HENDERSON      SUNNY     59  36  42 SW13      29.99R
MERCURY        CLOUDY    49  42  77 NE7       30.03R
$$



USA.gov is the U.S. government's official web portal to all federal, state and local government web resources and services.